LEMG Airport Information

Runway Information
Runway 12 Length 9022 ft width 148 ft
Elevation 52 ft Threshold 0 ft Heading 119
Runway 30 Length 9022 ft Width 148 ft
Elevation 31 ft Threshold 0 ft Heading 299
Runway 13 Length 10500 ft width 148 ft
Elevation 52 ft Threshold 0 ft Heading 133
Runway 31 Length 10500 ft Width 148 ft
Elevation 31 ft Threshold 0 ft Heading 313
Airport Frequencies
Type A/D Name APP Frequency 123.85 MHZ
Type ATIS Name ATIS Frequency 120.375 MHZ
Type CLD Name CLR DEL Frequency 121.875 MHZ
Type GND Name GND-W Frequency 121.7 MHZ
Type GND Name GND-E Frequency 121.95 MHZ
Type TWR Name TWR-W (RWY Frequency 118.15 MHZ
Type TWR Name TWR-E (RWY Frequency 118.775 MHZ
Airport Navaids
Type VOR-DME Name Martin Frequency 112600 KHZ
Type VOR-DME Name Malaga Frequency 112000 KHZ
Type VOR-DME Name Malaga Frequency 113550 KHZ
Type NDB Name Malaga Frequency 330 KHZ
Airport Weather Information & NOTAM
ADDS - METARS form results

(2228 UTC 20 June 2018)
 
METAR text: LEMG 202200Z 11003KT 070V140 CAVOK 22/17 Q1018 NOSIG
Conditions at: LEMG (MALAGA (CIV/MIL), ES) observed 2200 UTC 20 June 2018
Temperature: 22.0°C (72°F)
Dewpoint: 17.0°C (63°F) [RH = 73%]
Pressure (altimeter): 30.06 inches Hg (1018.0 mb)
Winds: from the ESE (110 degrees) at 3 MPH (3 knots; 1.6 m/s)
Visibility: 6 or more miles (10+ km)
Ceiling: ceiling and visibility are OK
Clouds: unknown
Weather: no significant weather observed at this time

METAR text: LEMG 202130Z 10004KT 070V130 CAVOK 22/17 Q1018 NOSIG
Conditions at: LEMG (MALAGA (CIV/MIL), ES) observed 2130 UTC 20 June 2018
Temperature: 22.0°C (72°F)
Dewpoint: 17.0°C (63°F) [RH = 73%]
Pressure (altimeter): 30.06 inches Hg (1018.0 mb)
Winds: from the E (100 degrees) at 5 MPH (4 knots; 2.1 m/s)
Visibility: 6 or more miles (10+ km)
Ceiling: ceiling and visibility are OK
Clouds: unknown
Weather: no significant weather observed at this time